Regional Weather Roundup
Issued by NWS

Home | Current Version | Previous Version | Graphics & Text | Print | Product List | Glossary On
Versions: 1 2 3 4 5 6 7 8 9 10 11 12 13 14 15 16 17 18 19 20 21 22 23 24 25 26 27 28 29 30 31 32 33 34 35 36 37 38 39 40 41 42 43 44 45 46 47 48 49 50
000
ASUS45 KBOI 010410
RWRID
WEATHER ROUNDUP FOR IDAHO
NATIONAL WEATHER SERVICE BOISE ID
900 PM MST SAT JAN 31 2015

NOTE: "FAIR" INDICATES FEW OR NO CLOUDS BELOW 12000 FEET
WITH NO SIGNIFICANT WEATHER AND/OR OBSTRUCTIONS TO VISIBILITY

IDZ012-014-010500-
SOUTHWEST IDAHO


CITY           SKY/WX    TMP DP  RH WIND       PRES   REMARKS
BOISE          PTCLDY    34  28  79 CALM      30.15F
CALDWELL       PTCLDY    37  25  60 CALM      30.18S
MOUNTAIN HOME  CLEAR     34  29  80 CALM      30.17R
$$

IDZ016-017-010500-
SOUTHCENTRAL IDAHO


CITY           SKY/WX    TMP DP  RH WIND       PRES   REMARKS
BURLEY         CLEAR     30  26  85 S5        30.17R WCI  25
JEROME         CLEAR     30  26  85 NE8       30.17R WCI  22
TWIN FALLS     CLEAR     38  28  67 SW14      30.16R WCI  30
$$

IDZ019>023-010500-
SOUTHEAST IDAHO


CITY           SKY/WX    TMP DP  RH WIND       PRES   REMARKS
IDAHO FALLS    CLOUDY    28  24  85 CALM      30.15S
POCATELLO      MOCLDY    26  25  96 SW7       30.17R WCI  18
REXBURG        CLOUDY    28  26  92 CALM      30.13S
$$

IDZ006-010-011-018-031-032-010500-
CENTRAL IDAHO MOUNTAINS


CITY           SKY/WX    TMP DP  RH WIND       PRES   REMARKS
MCCALL         CLOUDY    27  17  66 N3        30.14S
HAILEY         PTCLDY    21  19  93 NW7       30.14S WCI  13
STANLEY          N/A     12   4  70 CALM      30.14F
SALMON         CLOUDY    19  18  93 CALM      30.20S
CHALLIS        PTCLDY    23  20  88 N6        30.16R WCI  16
$$

IDZ002-004-006-007-026-010500-
NORTHERN IDAHO


CITY           SKY/WX    TMP DP  RH WIND       PRES   REMARKS
LEWISTON       CLOUDY    34  29  82 S3        30.29F
LOWELL           N/A     31  27  85 CALM      30.34R
COEUR D`ALENE  CLOUDY    30  27  86 CALM      30.27S
MULLAN PASS    HAZE      23  18  81 CALM      30.11S VSB 1
$$



USA.gov is the U.S. government's official web portal to all federal, state and local government web resources and services.